{"data":{"norad_id":56421,"epoch":"2026-09-20T10:45:52.332768Z","epoch_age_seconds":116221,"freshness":"FRESH","line1":"1 56421U 23061AZ  26263.44852237  .00000201  00000+0  16838-4 0  9996","line2":"2 56421  43.0051 163.2386 0001488 274.9950  85.0732 15.27578099186709","mean_motion":15.27578099,"eccentricity":0.0001488,"inclination_deg":43.0051,"raan_deg":163.2386,"arg_perigee_deg":274.995,"mean_anomaly_deg":85.0732,"bstar":1.6838e-5,"rev_number":18670,"period_min":94.266866024242,"perigee_km":482.03384298534,"apogee_km":484.07573366154,"semimajor_km":6861.1917883234,"source":"CELESTRAK","updated_at":"2026-09-21T09:00:33.438867Z"}}